Location: Unspecified
(0.0000°N, 0.0000°E)
Time: 21:39:55
(UTC+00:00)

Kosmos-2233 - Visible Passes

Search period start: 21 February 2024 00:00
Search period end: 02 March 2024 00:00
Orbit: 951 x 1006 km, 82.9° (Epoch: 21 February)

Date Brightness Start Highest point End Pass type
(mag) Time Alt. Az. Time Alt. Az. Time Alt. Az.
21 Feb 7.1 18:35:31 10° ESE 18:37:45 12° E 18:40:01 10° ENE visible
21 Feb 6.3 20:17:02 10° SSW 20:22:52 47° W 20:27:55 14° NNW visible
22 Feb 6.2 18:58:43 10° SSE 19:03:55 29° E 19:09:08 10° NE visible
22 Feb 7.6 20:44:36 10° SW 20:49:02 21° W 20:53:30 10° NW visible
23 Feb 5.4 19:24:00 10° S 19:30:05 67° E 19:36:11 10° NNE visible
24 Feb 6.1 19:50:16 10° SSW 19:56:14 55° W 20:02:15 10° N visible
25 Feb 6.4 18:32:23 10° SSE 18:37:18 25° E 18:42:14 10° NE visible
25 Feb 7.5 20:17:35 10° SW 20:22:25 24° W 20:27:17 10° NW visible
26 Feb 5.5 18:57:27 10° S 19:03:28 57° E 19:09:30 10° NNE visible
27 Feb 5.9 19:23:33 10° SSW 19:29:37 64° W 19:35:45 10° N visible
28 Feb 7.4 19:50:38 10° SW 19:55:47 28° W 20:00:59 10° NNW visible
29 Feb 5.7 18:30:55 10° SSE 18:36:50 49° E 18:42:47 10° NNE visible
29 Feb 8.4 20:19:54 10° WSW 20:21:58 12° W 20:24:03 10° WNW visible
01 Mar 5.7 18:56:51 10° S 19:02:59 75° W 19:09:12 10° N visible
